When you browse on this site, cookies collect data to enhance your experience and personalize the content and advertising you see.
Visit our Privacy Policy to learn more. By continuing to use the site, you agree to this use of cookies and data.

Météo par heure à Durrёs

Ce jour, 2 Juillet, Jeudi

Heure Température Précipitation Vent Pression Humidité
00:00 +26°C° 0 mm 1 m/s 757 mmHg 68%
01:00 +26°C° 0 mm 2 m/s 757 mmHg 68%
02:00 +25°C° 0 mm 2 m/s 757 mmHg 69%
03:00 +25°C° 0 mm 2 m/s 756 mmHg 69%
04:00 +25°C° 0 mm 2 m/s 756 mmHg 70%
05:00 +27°C° 0 mm 1 m/s 756 mmHg 64%
06:00 +29°C° 0 mm 1 m/s 756 mmHg 58%
07:00 +31°C° 0 mm 1 m/s 757 mmHg 52%
08:00 +33°C° 0 mm 1 m/s 756 mmHg 45%
09:00 +34°C° 0 mm 1 m/s 756 mmHg 39%
10:00 +36°C° 0 mm 1 m/s 756 mmHg 32%
11:00 +38°C° 0 mm 2 m/s 756 mmHg 32%
12:00 +38°C° 0 mm 3 m/s 756 mmHg 31%
13:00 +38°C° 0 mm 4 m/s 756 mmHg 31%
14:00 +38°C° 0 mm 4 m/s 756 mmHg 34%
15:00 +37°C° 0 mm 4 m/s 755 mmHg 37%
16:00 +36°C° 0 mm 4 m/s 755 mmHg 39%
17:00 +34°C° 0 mm 4 m/s 755 mmHg 46%
18:00 +31°C° 0 mm 3 m/s 756 mmHg 53%
19:00 +29°C° 0 mm 3 m/s 756 mmHg 59%
20:00 +28°C° 0 mm 3 m/s 756 mmHg 62%
21:00 +27°C° 0 mm 2 m/s 756 mmHg 64%
22:00 +26°C° 0 mm 2 m/s 756 mmHg 66%
23:00 +26°C° 0 mm 2 m/s 756 mmHg 67%

Demain, 3 Juillet, Vendredi

Heure Température Précipitation Vent Pression Humidité
00:00 +26°C° 0 mm 2 m/s 756 mmHg 67%
01:00 +25°C° 0 mm 2 m/s 756 mmHg 68%
02:00 +25°C° 0 mm 1 m/s 756 mmHg 68%
03:00 +25°C° 0 mm 1 m/s 755 mmHg 68%
04:00 +25°C° 0 mm 1 m/s 755 mmHg 68%
05:00 +27°C° 0 mm 1 m/s 755 mmHg 62%
06:00 +29°C° 0 mm 1 m/s 756 mmHg 56%
07:00 +31°C° 0 mm 1 m/s 756 mmHg 50%
08:00 +32°C° 0 mm 1 m/s 756 mmHg 46%
09:00 +35°C° 0 mm 2 m/s 756 mmHg 42%
10:00 +36°C° 0 mm 2 m/s 756 mmHg 38%
11:00 +37°C° 0 mm 3 m/s 756 mmHg 36%
12:00 +38°C° 0 mm 3 m/s 756 mmHg 35%
13:00 +38°C° 0 mm 4 m/s 755 mmHg 34%
14:00 +38°C° 0 mm 4 m/s 755 mmHg 35%
15:00 +37°C° 0 mm 4 m/s 755 mmHg 36%
16:00 +36°C° 0 mm 5 m/s 755 mmHg 38%
17:00 +34°C° 0 mm 4 m/s 755 mmHg 45%
18:00 +32°C° 0 mm 4 m/s 755 mmHg 52%
19:00 +29°C° 0 mm 3 m/s 756 mmHg 59%
20:00 +28°C° 0 mm 3 m/s 756 mmHg 60%
21:00 +27°C° 0 mm 3 m/s 756 mmHg 61%
22:00 +26°C° 0 mm 2 m/s 757 mmHg 62%
23:00 +26°C° 0 mm 2 m/s 757 mmHg 63%

Après-demain, 4 Juillet, Samedi

Heure Température Précipitation Vent Pression Humidité
00:00 +26°C° 0 mm 2 m/s 757 mmHg 64%
01:00 +25°C° 0 mm 2 m/s 757 mmHg 65%
02:00 +25°C° 0 mm 2 m/s 757 mmHg 65%
03:00 +25°C° 0 mm 2 m/s 757 mmHg 65%
04:00 +25°C° 0 mm 2 m/s 756 mmHg 65%
05:00 +27°C° 0 mm 2 m/s 756 mmHg 59%
06:00 +29°C° 0 mm 2 m/s 756 mmHg 54%
07:00 +30°C° 0 mm 1 m/s 757 mmHg 48%
08:00 +32°C° 0 mm 2 m/s 757 mmHg 44%
09:00 +35°C° 0 mm 2 m/s 757 mmHg 40%
10:00 +36°C° 0 mm 3 m/s 757 mmHg 37%
11:00 +37°C° 0 mm 4 m/s 756 mmHg 36%
12:00 +37°C° 0 mm 5 m/s 756 mmHg 35%
13:00 +38°C° 0 mm 6 m/s 756 mmHg 35%
14:00 +36°C° 0 mm 6 m/s 756 mmHg 39%
15:00 +35°C° 0 mm 6 m/s 756 mmHg 42%
16:00 +34°C° 0 mm 6 m/s 755 mmHg 46%
17:00 +32°C° 0 mm 6 m/s 756 mmHg 53%
18:00 +30°C° 0 mm 5 m/s 756 mmHg 61%
19:00 +28°C° 0 mm 4 m/s 756 mmHg 69%
20:00 +27°C° 0.1 mm 5 m/s 756 mmHg 74%
21:00 +26°C° 0.1 mm 6 m/s 756 mmHg 79%
22:00 +24°C° 0.1 mm 6 m/s 757 mmHg 84%
23:00 +23°C° 0.1 mm 6 m/s 757 mmHg 86%

5 Juillet, Dimanche

Heure Température Précipitation Vent Pression Humidité
00:00 +23°C° 0.1 mm 6 m/s 756 mmHg 88%
01:00 +23°C° 0.1 mm 6 m/s 756 mmHg 90%
02:00 +22°C° 0 mm 5 m/s 756 mmHg 87%
03:00 +22°C° 0 mm 4 m/s 756 mmHg 85%
04:00 +22°C° 0 mm 4 m/s 756 mmHg 83%
05:00 +23°C° 0 mm 4 m/s 756 mmHg 76%
06:00 +26°C° 0 mm 3 m/s 756 mmHg 68%
07:00 +27°C° 0 mm 3 m/s 756 mmHg 61%
08:00 +29°C° 0 mm 4 m/s 756 mmHg 55%
09:00 +32°C° 0 mm 5 m/s 756 mmHg 49%
10:00 +34°C° 0 mm 6 m/s 756 mmHg 42%
11:00 +35°C° 0 mm 6 m/s 755 mmHg 39%
12:00 +36°C° 0 mm 7 m/s 755 mmHg 36%
13:00 +38°C° 0 mm 7 m/s 755 mmHg 33%
14:00 +38°C° 0 mm 8 m/s 754 mmHg 34%
15:00 +37°C° 0 mm 9 m/s 754 mmHg 35%
16:00 +37°C° 0 mm 10 m/s 754 mmHg 36%
17:00 +34°C° 0 mm 10 m/s 754 mmHg 43%
18:00 +32°C° 0 mm 9 m/s 754 mmHg 50%
19:00 +29°C° 0 mm 9 m/s 754 mmHg 57%
20:00 +28°C° 0 mm 8 m/s 755 mmHg 59%
21:00 +27°C° 0 mm 6 m/s 755 mmHg 62%
22:00 +26°C° 0 mm 5 m/s 755 mmHg 65%
23:00 +26°C° 0 mm 5 m/s 755 mmHg 64%

6 Juillet, Lundi

Heure Température Précipitation Vent Pression Humidité
00:00 +26°C° 0 mm 4 m/s 755 mmHg 63%
01:00 +25°C° 0 mm 3 m/s 754 mmHg 63%
02:00 +25°C° 0 mm 4 m/s 754 mmHg 62%
03:00 +25°C° 0 mm 4 m/s 754 mmHg 61%
04:00 +25°C° 0 mm 4 m/s 754 mmHg 60%
05:00 +26°C° 0 mm 4 m/s 754 mmHg 58%
06:00 +27°C° 0 mm 4 m/s 754 mmHg 55%
07:00 +28°C° 0 mm 4 m/s 754 mmHg 53%
08:00 +32°C° 0 mm 4 m/s 754 mmHg 46%
09:00 +34°C° 0 mm 4 m/s 754 mmHg 40%
10:00 +36°C° 0 mm 4 m/s 754 mmHg 33%
11:00 +36°C° 0 mm 5 m/s 754 mmHg 32%
12:00 +37°C° 0 mm 5 m/s 753 mmHg 31%
13:00 +37°C° 0 mm 5 m/s 753 mmHg 30%
14:00 +38°C° 0 mm 6 m/s 753 mmHg 31%
15:00 +38°C° 0 mm 8 m/s 752 mmHg 33%
16:00 +38°C° 0 mm 9 m/s 752 mmHg 34%
17:00 +34°C° 0 mm 8 m/s 752 mmHg 44%
18:00 +32°C° 0 mm 8 m/s 752 mmHg 53%
19:00 +29°C° 0 mm 7 m/s 752 mmHg 62%
20:00 +28°C° 0 mm 6 m/s 752 mmHg 62%
21:00 +28°C° 0 mm 5 m/s 753 mmHg 62%
22:00 +27°C° 0 mm 4 m/s 753 mmHg 62%
23:00 +27°C° 0 mm 4 m/s 753 mmHg 62%

7 Juillet, Mardi

Heure Température Précipitation Vent Pression Humidité
00:00 +26°C° 0 mm 4 m/s 752 mmHg 62%
01:00 +26°C° 0 mm 3 m/s 752 mmHg 63%
02:00 +26°C° 0 mm 3 m/s 752 mmHg 63%
03:00 +25°C° 0 mm 3 m/s 752 mmHg 63%
04:00 +25°C° 0 mm 2 m/s 752 mmHg 63%
05:00 +27°C° 0 mm 2 m/s 752 mmHg 58%
06:00 +28°C° 0 mm 2 m/s 752 mmHg 52%
07:00 +30°C° 0 mm 2 m/s 752 mmHg 47%
08:00 +33°C° 0 mm 3 m/s 752 mmHg 42%
09:00 +35°C° 0 mm 3 m/s 752 mmHg 37%
10:00 +37°C° 0 mm 4 m/s 752 mmHg 32%
11:00 +37°C° 0 mm 5 m/s 752 mmHg 33%
12:00 +38°C° 0 mm 6 m/s 752 mmHg 34%
13:00 +39°C° 0 mm 7 m/s 752 mmHg 35%
14:00 +38°C° 0 mm 7 m/s 752 mmHg 38%
15:00 +36°C° 0 mm 7 m/s 752 mmHg 42%
16:00 +35°C° 0 mm 7 m/s 752 mmHg 45%
17:00 +33°C° 0 mm 7 m/s 752 mmHg 52%
18:00 +30°C° 0 mm 7 m/s 753 mmHg 59%
19:00 +29°C° 0 mm 6 m/s 753 mmHg 67%
20:00 +28°C° 0 mm 6 m/s 754 mmHg 71%
21:00 +27°C° 0 mm 6 m/s 754 mmHg 75%
22:00 +26°C° 0 mm 6 m/s 755 mmHg 79%
23:00 +24°C° 0.2 mm 6 m/s 755 mmHg 80%
Voir plus